Location: Bli��� Lhota
(48.7570°N, 14.0120°E)
Time: 06:21:57
(UTC+00:00)

CENTAUR R/B - Pass Details

Date: 18 September 2020
Orbit: 755 x 1433 km, 63.4° (Epoch: 02 October)

Event Time Altitude Azimuth Distance (km) Brightness Sun altitude
Rises 17:33:13 0° 312° (NW) 3,961 6.7 -4.7°
Reaches altitude 10° 17:36:02 10° 320° (NW) 3,099 5.9 -5.2°
Maximum altitude 17:43:03 38° 28° (NNE) 1,877 3.9 -6.3°
Drops below altitude 10° 17:50:54 10° 94° (E) 3,476 4.7 -7.6°
Enters shadow 17:51:21 - 95° (E) 3,609 4.8 -7.6°
